TimePDT,TemperatureF,Dew PointF,Humidity,Sea Level PressureIn,VisibilityMPH,Wind Direction,Wind SpeedMPH,Gust SpeedMPH,PrecipitationIn,Events,Conditions,WindDirDegrees,DateUTC
12:53 AM,46.9,46.0,97,30.14,10.0,Calm,Calm,-,N/A,,Clear,0,2013-06-22 07:53:00
1:53 AM,46.9,46.0,97,30.13,9.0,Calm,Calm,-,N/A,,Clear,0,2013-06-22 08:53:00
2:53 AM,45.0,45.0,100,30.12,8.0,Calm,Calm,-,N/A,,Clear,0,2013-06-22 09:53:00
3:53 AM,46.0,45.0,96,30.12,6.0,Calm,Calm,-,N/A,,Clear,0,2013-06-22 10:53:00
4:53 AM,45.0,44.1,97,30.11,7.0,Calm,Calm,-,N/A,,Clear,0,2013-06-22 11:53:00
5:53 AM,46.0,45.0,96,30.10,8.0,Calm,Calm,-,N/A,,Clear,0,2013-06-22 12:53:00
6:53 AM,52.0,50.0,93,30.10,10.0,Calm,Calm,-,N/A,,Clear,0,2013-06-22 13:53:00
7:01 AM,51.8,51.8,100,30.10,10.0,Calm,Calm,-,N/A,,Partly Cloudy,0,2013-06-22 14:01:00
7:53 AM,54.0,51.1,90,30.09,10.0,Calm,Calm,-,N/A,,Clear,0,2013-06-22 14:53:00
8:53 AM,55.9,51.1,84,30.09,10.0,ESE,3.5,-,N/A,,Clear,110,2013-06-22 15:53:00
9:53 AM,60.1,51.1,72,30.08,10.0,ESE,3.5,-,N/A,,Clear,110,2013-06-22 16:53:00
10:53 AM,64.9,53.1,65,30.06,10.0,ESE,3.5,-,N/A,,Clear,120,2013-06-22 17:53:00
11:53 AM,66.0,52.0,60,30.05,10.0,SE,4.6,-,N/A,,Clear,130,2013-06-22 18:53:00
12:53 PM,68.0,53.1,59,30.04,10.0,Calm,Calm,-,N/A,,Clear,0,2013-06-22 19:53:00
1:53 PM,70.0,53.1,55,30.02,10.0,Calm,Calm,-,N/A,,Clear,0,2013-06-22 20:53:00
2:53 PM,72.0,53.1,51,30.00,10.0,ESE,3.5,-,N/A,,Clear,110,2013-06-22 21:53:00
3:53 PM,72.0,53.1,51,29.99,10.0,ESE,3.5,-,N/A,,Clear,120,2013-06-22 22:53:00
4:53 PM,70.0,53.1,55,29.96,10.0,ESE,4.6,-,N/A,,Clear,110,2013-06-22 23:53:00
5:53 PM,71.1,51.1,49,29.94,10.0,NNE,3.5,-,N/A,,Clear,20,2013-06-23 00:53:00
6:53 PM,70.0,51.1,51,29.93,10.0,Variable,3.5,-,N/A,,Clear,0,2013-06-23 01:53:00
7:53 PM,68.0,48.9,50,29.92,10.0,Calm,Calm,-,N/A,,Clear,0,2013-06-23 02:53:00
8:53 PM,64.0,50.0,60,29.91,10.0,Calm,Calm,-,N/A,,Clear,0,2013-06-23 03:53:00
9:53 PM,61.0,48.9,64,29.91,10.0,NNW,3.5,-,N/A,,Clear,340,2013-06-23 04:53:00
10:53 PM,55.0,48.9,80,29.90,10.0,Calm,Calm,-,N/A,,Clear,0,2013-06-23 05:53:00
11:53 PM,54.0,50.0,86,29.89,10.0,Calm,Calm,-,N/A,,Clear,0,2013-06-23 06:53:00